Regional Weather Roundup
Issued by NWS

Home | Current Version | Previous Version | Graphics & Text | Print | Product List | Glossary Off
Versions: 1 2 3 4 5 6 7 8 9 10 11 12 13 14 15 16 17 18 19 20 21 22 23 24 25 26 27 28 29 30 31 32 33 34 35 36 37 38 39 40 41 42 43 44 45 46 47 48 49 50

000
ASUS43 KDMX 250401
RWRIA

WEATHER ROUNDUP FOR IOWA
NATIONAL WEATHER SERVICE DES MOINES IA
1100 PM CDT TUE APR 24 2018

NOTE: "FAIR" INDICATES FEW OR NO CLOUDS BELOW 12,000 FEET WITH NO
SIGNIFICANT WEATHER AND/OR OBSTRUCTIONS TO VISIBILITY.

* - THESE STATIONS ARE NOT NWS STATIONS...THUS NOT UNDER NWS
QUALITY CONTROL.  THEY ALSO DO NOT REPORT WEATHER SUCH
AS PRECIPITATION OR FOG.

IAZ001>003-012>014-020>022-031>034-043>046-250500-
   NORTHWEST IOWA

CITY           SKY/WX    TMP DP  RH WIND       PRES   REMARKS
CARROLL *      CLOUDY    48  45  87 N16       30.20F
CHEROKEE *     CLOUDY    45  44  94 N10       30.25F
DENISON *      CLOUDY    46  45  93 NE13      30.23S
LE MARS *      CLOUDY    45  43  93 N6        30.27F
ORANGE CITY *  CLOUDY    45  43  93 N8        30.27S
SHELDON *      CLOUDY    41  41 100 NW9       30.25S
SIOUX CITY     LGT RAIN  45  41  86 N12       30.27R
SPENCER        CLOUDY    47  40  76 N7        30.25R
STORM LAKE *   CLOUDY    45  43  93 N10       30.23F
$$

IAZ055>058-069>071-079>083-090>094-250500-
   SOUTHWEST IOWA

CITY           SKY/WX    TMP DP  RH WIND       PRES   REMARKS
ATLANTIC *     CLOUDY    50  46  87 NE8       30.19F
AUDUBON *      RAIN      48  45  87 N14G20    30.21F
CLARINDA *     CLOUDY    52  46  82 N14G20    30.20R
COUNCIL BLFS * LGT RAIN  50  50 100 NE12      30.20S
CRESTON *      CLOUDY    54  41  62 N20G25    30.18S
HARLAN  *      LGT RAIN  48  48 100 N14G20    30.24R
LAMONI         CLOUDY    60  43  53 N9        30.12R
RED OAK *      CLOUDY    52  46  82 N13       30.20R
SHENANDOAH *   CLOUDY    54  48  82 N14       30.20R
$$

IAZ047>049-059>061-072>074-084-250500-
   CENTRAL IOWA

CITY           SKY/WX    TMP DP  RH WIND       PRES   REMARKS
AMES           CLOUDY    53  43  68 N18G28    30.17R
ANKENY *       CLOUDY    55  43  62 N17G24    30.17R
BOONE *        CLOUDY    52  45  76 N18G25    30.17S
CHARITON *     MOCLDY    59  46  63 N12G22    30.12R
DES MOINES     CLOUDY    57  41  55 N16G23    30.16R
GRINNELL*      CLOUDY    56  41  57 N14G23    30.13R
KNOXVILLE *    CLOUDY    59  41  51 N12G18    30.12R
MARSHALLTOWN   CLOUDY    55  41  59 N18G29    30.14R
NEWTON *       CLOUDY    57  41  54 N20       30.13R
PELLA *        CLOUDY    58  42  56 N12G18    30.13R
$$

IAZ004>006-015-016-023>025-035-036-250500-
   NORTH CENTRAL IOWA

CITY           SKY/WX    TMP DP  RH WIND       PRES   REMARKS
ALGONA *       CLOUDY    46  43  87 N10       30.22S
CLARION *      CLOUDY    50  43  76 N12       30.19S
ESTHERVILLE    PTCLDY    42  38  85 NW9       30.23S
FORT DODGE *   CLOUDY    49  44  83 N9        30.21S
MASON CITY     CLOUDY    47  41  80 N14       30.20R
FOREST CITY *  MOCLDY    48  41  76 N14       30.20R
WEBSTER CITY * CLOUDY    50  45  81 N14       30.18R
IOWA FALLS *   CLOUDY    52  43  70 N13G23    30.18R
$$

IAZ007>011-017>019-026>030-037>042-050>054-066-250500-
   NORTHEAST IOWA

CITY           SKY/WX    TMP DP  RH WIND       PRES   REMARKS
CEDAR RAPIDS   CLOUDY    60  43  53 N15       30.07R
CHARLES CITY * FAIR      48  39  71 N13       30.17R
CLINTON *      CLOUDY    56  38  50 N13       30.02R
DECORAH *      FAIR      52  36  54 N12       30.14R
DUBUQUE        CLOUDY    61  38  42 N13       30.06R
MONTICELLO *   MOCLDY    57  41  54 NW12      30.06R
OELWEIN *      FAIR      54  37  54 N17G24    30.12R
WATERLOO       FAIR      52  39  61 N20       30.13R
$$

IAZ064-065-067-068-078-250500-
   EAST CENTRAL IOWA

CITY           SKY/WX    TMP DP  RH WIND       PRES   REMARKS
DAVENPORT      CLOUDY    60  38  43 N10       30.04R
IOWA CITY      FAIR      64  41  42 N10       30.07R
MT. PLEASANT * MOCLDY    61  43  51 N13       30.04S
MUSCATINE *    MOCLDY    64  41  42 NW13G21   30.04R
QUAD CITIES    CLOUDY    65  38  36 NW10      30.00S
$$

IAZ062-063-075>077-085>089-095>099-250500-
   SOUTHEAST IOWA

CITY           SKY/WX    TMP DP  RH WIND       PRES   REMARKS
BURLINGTON     PTCLDY    62  36  37 NW8       30.02R
FAIRFIELD *    MOCLDY    61  43  51 N14       30.06S
FORT MADISON * PTCLDY    61  43  51 N10       30.04S
KEOKUK *       CLOUDY    63  41  45 N9        30.02F
OSKALOOSA *    FAIR      58  45  60 N14       30.10R
CENTERVILLE *  FAIR      61  45  55 N14       30.11S
OTTUMWA        MOCLDY    58  45  62 N13       30.09R
WASHINGTON *   CLOUDY    61  45  55 N14       30.06S
$$

ABBREVIATIONS USED IN REMARKS
   TC - TEMPERATURES IN CELSIUS
  WCI - WIND CHILL INDEX
   HX - HEAT INDEX
  VSB - VISIBILITY
$$





USA.gov is the U.S. government's official web portal to all federal, state and local government web resources and services.